Flag for Germany Weather past 2 weeks in Dachau, Bavaria, Germany

Now
32 °F

Snow flurries. Partly sunny.


Feels Like: 23 °F
Forecast: 30 / 34 °F
Wind: 12 mph from West

Location: Oberpfaffenhofen

Current Time: Jan 27, 2015 at 12:12:41 PM

Latest Report: Jan 27, 2015 at 11:50 AM


Visibility: N/A

Pressure: 30.12 "Hg

Humidity: 93%

Dew point: 30 °F

Location of DachauLocation

Historic Weather in Dachau — Graph

°F

Dachau temperature yesterday

Maximum temperature yesterday: 34 °F (at 3:20 PM)
Minimum temperature yesterday: 27 °F (at 6:50 AM)
Average temperature yesterday: 30 °F

Past Weeks' High & Low Weather Summary

 TemperatureHumidityPressure
High55 °F (Jan 13, 12:20 PM)100% (Jan 17, 10:20 AM)30.33 "Hg (Jan 17, 10:20 AM)
Low23 °F (Jan 19, 6:50 PM)18% (Jan 13, 12:20 PM)29.65 "Hg (Jan 16, 4:20 PM)
Average34 °F79%29.96 "Hg
* Reported Jan 12 10:20 AM — Jan 27 10:50 AM, Dachau, Weather by CustomWeather, © 2014

Note: Actual official high and low records may vary slightly from our data, if they occured in-between our weather recording intervals... More about our weather records

Advertising

Dachau weather history for previous 24 hours

 ConditionsComfort  
Time TempWeatherWind HumidityBarometerVisibility
10:50 AM
Jan 27
30 °FSnow flurries. Partly sunny.13 mph100%30.12 "HgN/A
10:20 AM32 °FHeavy snow. Low clouds.12 mph93%30.09 "Hg1 mi
9:50 AM32 °FSprinkles. Broken clouds.12 mph93%30.09 "Hg5 mi
9:20 AM32 °FSnow flurries. Broken clouds.12 mph93%30.09 "Hg5 mi
8:50 AM32 °FLight snow. Broken clouds.9 mph93%30.09 "Hg5 mi
8:20 AM32 °FBroken clouds.10 mph93%30.09 "HgN/A
7:50 AM32 °FMore clouds than sun.9 mph93%30.09 "HgN/A
7:20 AM32 °FPartly cloudy.12 mph93%30.09 "HgN/A
6:50 AM32 °FLight snow. Partly cloudy.9 mph93%30.07 "HgN/A
7:50 PM
Jan 26
30 °FLight snow. Passing clouds.8 mph86%30.09 "Hg3 mi
7:20 PM30 °FSnow flurries. Passing clouds.10 mph86%30.09 "Hg5 mi
6:50 PM30 °FSnow flurries. Passing clouds.10 mph80%30.12 "Hg3 mi
6:20 PM30 °FClear.8 mph75%30.12 "Hg10 mi
5:50 PM30 °FSnow flurries. Partly cloudy.12 mph80%30.12 "HgN/A
5:20 PM30 °FLight snow. Passing clouds.7 mph75%30.15 "HgN/A
4:50 PM32 °FSunny.8 mph75%30.15 "Hg10 mi
4:20 PM32 °FSunny.6 mph69%30.15 "Hg10 mi
3:50 PM32 °FSunny.6 mph69%30.15 "Hg10 mi
3:20 PM34 °FSunny.6 mph65%30.15 "Hg10 mi
2:50 PM32 °FSunny.5 mph69%30.18 "Hg10 mi
2:20 PM32 °FSunny.7 mph69%30.18 "Hg10 mi
1:50 PM32 °FSunny.7 mph69%30.18 "Hg10 mi
1:20 PM32 °FPassing clouds.8 mph69%30.21 "HgN/A
12:50 PM32 °FPartly sunny.6 mph69%30.21 "HgN/A
12:20 PM32 °FPartly sunny.8 mph69%30.24 "HgN/A
Weather by CustomWeather, © 2014

See weather overviewHow to use our weather pages